Track COSMOS 1814 now! 10-day predictions COSMOS 1814 is classified as:
1 17303U 87006A 21061.12457276 .00000017 00000-0 15153-4 0 9996 2 17303 74.0564 198.6667 0023913 56.7839 303.5601 14.35035213784937